Location: Kampung Segan
(3.1399°N, 113.1002°E)
Time: 07:33:24
(UTC+00:00)

MOS 1-B Rocket - Pass Details

Date: 18 October 2025
Orbit: 891 x 1603 km, 99.0° (Epoch: 17 November)

Event Time Altitude Azimuth Distance (km) Brightness Sun altitude
Rises 18:28:21 0° 54° (NE) 4,725 7.9 -55.7°
Reaches altitude 10° 18:33:29 10° 79° (ENE) 3,802 7.4 -54.4°
Maximum altitude 18:37:16 13° 104° (ESE) 3,561 7.3 -53.5°
Drops below altitude 10° 18:41:03 10° 129° (SE) 3,809 7.4 -52.6°
Sets 18:46:07 0° 153° (SSE) 4,744 7.9 -51.3°
